Location: ????????
(42.0488°N, 44.0407°E)
Time: 22:33:18
(UTC+00:00)

Cosmos 1743 Rocket - Pass Details

Date: 07 June 2020
Orbit: 604 x 633 km, 82.6° (Epoch: 06 July)

Event Time Altitude Azimuth Distance (km) Brightness Sun altitude
Rises 00:34:57 0° 174° (S) 2,887 6.6 -8.8°
Reaches altitude 10° 00:37:13 10° 169° (SSE) 1,981 5.9 -8.4°
Maximum altitude 00:41:28 51° 94° (E) 781 4.4 -7.8°
Drops below altitude 10° 00:45:42 10° 18° (NNE) 1,979 7.2 -7.2°
Sets 00:47:58 0° 14° (NNE) 2,884 8.0 -6.9°
